Location: Cerezo de Arriba
(41.2389°N, 3.5585°W)
Time: 04:51:23
(UTC+00:00)

Ariane Rocket - Pass Details

Date: 19 May 2025
Orbit: 755 x 765 km, 98.5° (Epoch: 23 June)

Event Time Altitude Azimuth Distance (km) Brightness Sun altitude
Exits shadow 21:17:05 28° 124° (SE) 1,412 3.8 -16.7°
Maximum altitude 21:19:18 44° 70° (ENE) 1,043 3.5 -17.0°
Drops below altitude 10° 21:24:06 10° 360° (N) 2,307 6.2 -17.6°
Sets 21:26:30 0° 354° (N) 3,238 7.2 -17.9°
